Weather reports worldwide

Advertisment
Jerez de los Caballeros, Spain (8337): temperature & dewpoint: 30.03.2020 22:00:00 - 05.04.2020 22:00:00 (CEST)Jerez de los Caballeros, Spain (8337): wind speed & gusts: 30.03.2020 22:00:00 - 05.04.2020 22:00:00 (CEST)Jerez de los Caballeros, Spain (8337): wind direction: 30.03.2020 22:00:00 - 05.04.2020 22:00:00 (CEST)Jerez de los Caballeros, Spain (8337): reduced air pressure: 30.03.2020 22:00:00 - 05.04.2020 22:00:00 (CEST)Jerez de los Caballeros, Spain (8337): visibility: 30.03.2020 22:00:00 - 05.04.2020 22:00:00 (CEST)Jerez de los Caballeros, Spain (8337): sunshine duration: 30.03.2020 22:00:00 - 05.04.2020 22:00:00 (CEST)Jerez de los Caballeros, Spain (8337): precipitation: 30.03.2020 22:00:00 - 05.04.2020 22:00:00 (CEST)
Date & Time tt [°C] td [°C] ff [km/h] ff [kn] fx [km/h] fx [kn] dd ppp [hPa] vv [km] sd [min] rr [mm]
05.04.2020 22:00:00 - - - - - - - - - - -
05.04.2020 21:00:00 15,7 11,9 18 10 34 18 SSW 1015,9 16 0 0,0
05.04.2020 20:00:00 16,1 11,7 15 8 37 20 SSW 1015,4 20 1 -
05.04.2020 19:00:00 16,3 12,1 22 12 42 23 SSW 1015,3 20 0 0,0
05.04.2020 18:00:00 16,8 11,6 26 14 44 24 S 1014,8 20 4 0,0
05.04.2020 17:00:00 17,0 11,0 19 11 45 24 SSW 1015,1 20 9 0,0
05.04.2020 16:00:00 18,1 11,0 26 14 44 24 SSW 1015,3 20 23 0,0
05.04.2020 15:00:00 17,5 10,6 26 14 43 23 SSW 1015,4 20 0 0,0
05.04.2020 14:00:00 17,3 10,2 20 11 39 21 SSW 1015,8 20 18 -
05.04.2020 13:00:00 18,0 10,2 21 12 36 20 SSW 1015,5 20 54 0,0
05.04.2020 12:00:00 17,1 10,0 10 6 21 11 S 1016,1 20 0 0,0
05.04.2020 11:00:00 15,9 9,0 10 5 24 13 S 1016,3 20 46 0,0
05.04.2020 10:00:00 14,6 8,8 12 6 22 12 E 1016,1 20 25 0,0
05.04.2020 09:00:00 12,1 8,3 6 3 26 14 ENE 1016,5 20 0 0,0
05.04.2020 08:00:00 11,9 7,6 9 5 18 10 SSW 1016,1 20 0 -
05.04.2020 07:00:00 12,0 7,6 9 5 21 11 WSW 1015,4 20 0 0,0
05.04.2020 06:00:00 12,4 6,7 2 1 16 8 WSW 1014,7 20 0 0,0
05.04.2020 05:00:00 11,9 7,0 9 5 17 9 ENE 1014,4 20 0 0,0
05.04.2020 04:00:00 12,8 6,4 6 3 13 7 ESE 1015,0 20 0 0,0
05.04.2020 03:00:00 12,7 6,7 5 3 16 9 ENE 1014,8 20 0 0,0
05.04.2020 02:00:00 12,4 7,3 9 5 19 11 ENE 1015,1 20 0 -
05.04.2020 01:00:00 12,3 7,4 15 8 19 11 ENE 1015,0 20 0 0,0
05.04.2020 00:00:00 13,0 7,7 8 5 16 8 E 1015,1 20 0 0,0
04.04.2020 23:00:00 13,9 8,1 9 5 14 7 E 1015,0 20 0 0,0
04.04.2020 22:00:00 14,6 8,1 5 3 16 9 E 1014,2 20 0 0,0
04.04.2020 21:00:00 14,6 8,1 6 3 9 5 ENE 1013,6 20 0 0,0
04.04.2020 20:00:00 15,0 9,2 5 3 18 10 E 1013,3 20 6 -
04.04.2020 19:00:00 15,0 8,3 13 7 18 10 ENE 1012,9 20 0 0,2
04.04.2020 18:00:00 15,4 9,0 3 2 19 11 SSW 1013,1 20 0 0,2
04.04.2020 17:00:00 15,9 8,1 9 5 23 12 SSE 1012,7 20 0 0,0
04.04.2020 16:00:00 16,9 7,0 12 6 33 18 SE 1012,6 20 0 0,0
04.04.2020 15:00:00 16,6 5,8 19 10 34 19 ESE 1012,4 20 0 0,0
04.04.2020 14:00:00 15,7 4,5 22 12 38 20 E 1012,7 20 0 -
04.04.2020 13:00:00 16,5 5,8 19 10 32 17 ESE 1012,6 20 56 0,0
04.04.2020 12:00:00 14,6 5,6 21 11 29 16 E 1013,0 20 1 0,0
04.04.2020 11:00:00 12,8 4,8 20 11 29 16 ENE 1013,0 20 0 0,0
04.04.2020 10:00:00 11,6 4,3 16 9 35 19 ENE 1012,9 20 1 0,0
04.04.2020 09:00:00 11,4 3,4 25 14 36 19 NE 1012,2 20 46 0,0
04.04.2020 08:00:00 10,1 3,2 17 9 28 15 ENE 1012,4 20 0 -
04.04.2020 07:00:00 10,4 3,6 20 11 37 20 ENE 1012,7 20 0 0,0
04.04.2020 06:00:00 10,6 4,1 26 14 34 19 ENE 1012,4 20 0 0,0
04.04.2020 05:00:00 10,3 5,5 15 8 24 13 ENE 1013,1 20 0 0,0
04.04.2020 04:00:00 10,6 6,4 14 8 24 13 ENE 1013,5 20 0 0,0
04.04.2020 03:00:00 11,8 6,5 21 11 29 16 NE 1013,7 20 0 0,0
04.04.2020 02:00:00 12,5 6,2 14 8 24 13 ENE 1014,1 20 0 -
04.04.2020 01:00:00 13,4 6,2 14 7 20 11 ENE 1014,3 20 0 0,0
04.04.2020 00:00:00 14,6 5,6 8 4 11 6 ENE 1014,2 20 0 0,0
03.04.2020 23:00:00 15,4 5,6 3 1 18 10 ENE 1014,2 20 0 0,0
03.04.2020 22:00:00 16,1 6,5 3 2 7 4 E 1013,8 20 0 0,0
03.04.2020 21:00:00 17,3 6,8 4 2 9 5 E 1013,0 1,1 16 0,0
03.04.2020 20:00:00 18,5 7,0 6 3 11 6 S 1012,9 20 3 -
03.04.2020 19:00:00 19,8 5,1 4 2 15 8 ESE 1012,6 20 51 0,0
03.04.2020 18:00:00 20,6 6,8 6 4 16 9 E 1012,4 20 60 0,0
03.04.2020 17:00:00 20,6 7,3 4 2 16 9 E 1012,9 20 60 0,0
03.04.2020 16:00:00 20,3 8,3 9 5 17 9 SSW 1013,4 20 60 0,0
03.04.2020 15:00:00 19,6 7,3 6 3 14 8 ENE 1014,3 20 60 0,0
03.04.2020 14:00:00 17,8 5,8 4 2 14 7 NW 1015,2 20 60 -
03.04.2020 13:00:00 17,3 7,3 4 2 9 5 WSW 1015,9 20 60 0,0
03.04.2020 12:00:00 14,1 9,2 4 2 8 5 ENE 1016,9 20 60 0,0
03.04.2020 11:00:00 10,2 8,0 6 3 10 5 ENE 1017,4 20 60 0,0
03.04.2020 10:00:00 6,3 5,1 3 2 9 5 SSE 1017,9 0,3 60 0,0
03.04.2020 09:00:00 5,9 4,7 2 1 3 2 N - - 49 0,0
03.04.2020 08:00:00 4,5 3,3 0 0 13 7 N - - 0 -
03.04.2020 07:00:00 5,4 4,1 8 4 10 5 E 1016,7 0,7 0 0,0
03.04.2020 06:00:00 6,6 5,1 3 2 7 4 ENE 1016,6 20 0 0,0
03.04.2020 05:00:00 6,5 4,1 6 3 9 5 SW 1016,4 0,2 0 0,0
03.04.2020 04:00:00 7,6 4,6 7 4 12 6 SW - - 0 0,0
03.04.2020 03:00:00 9,0 5,8 3 2 10 5 ENE 1016,6 20 0 0,0
03.04.2020 02:00:00 8,9 5,3 5 3 10 5 SSW 1017,1 20 0 -
03.04.2020 01:00:00 10,0 5,6 5 3 8 4 SSW 1016,9 20 0 0,0
03.04.2020 00:00:00 11,5 5,8 5 3 12 7 WNW 1016,5 20 0 0,0
02.04.2020 23:00:00 11,4 5,5 6 3 8 4 WSW 1016,3 20 0 0,0
02.04.2020 22:00:00 12,4 5,6 8 4 16 8 W 1015,6 20 0 0,0
02.04.2020 21:00:00 13,3 5,5 13 7 16 8 W 1014,7 20 30 0,0
02.04.2020 20:00:00 15,3 4,3 10 6 22 12 NNW 1014,1 20 59 -
02.04.2020 19:00:00 15,6 5,0 10 5 22 12 N 1013,8 20 38 0,0
02.04.2020 18:00:00 15,4 3,6 14 7 29 16 N 1013,5 20 40 0,0
02.04.2020 17:00:00 14,8 4,8 12 7 23 12 NNE 1013,6 19 35 0,0
02.04.2020 16:00:00 14,0 5,3 6 3 27 15 N 1013,6 20 27 0,0
02.04.2020 15:00:00 13,5 5,6 21 11 34 19 NE 1013,4 20 32 0,0
02.04.2020 14:00:00 12,1 5,3 18 10 29 16 NE 1013,6 20 9 -
02.04.2020 13:00:00 11,1 5,1 13 7 26 14 NNE 1013,9 20 51 0,0
02.04.2020 12:00:00 9,5 5,3 12 7 30 16 NNW 1014,0 20 37 0,0
02.04.2020 11:00:00 8,9 4,6 15 8 28 15 N 1013,3 20 30 0,0
02.04.2020 10:00:00 7,9 5,5 8 4 21 11 ESE 1012,9 20 32 0,0
02.04.2020 09:00:00 7,0 4,8 10 5 21 11 E 1011,9 20 2 0,0
02.04.2020 08:00:00 6,1 4,6 5 3 8 5 NE 1011,4 20 0 -
02.04.2020 07:00:00 6,4 4,8 5 3 10 5 NE 1011,0 19 0 0,0
02.04.2020 06:00:00 7,0 4,5 4 2 12 6 SSW 1011,0 20 0 0,0
02.04.2020 05:00:00 6,9 4,3 7 4 14 8 WSW 1010,9 20 0 1,0
02.04.2020 04:00:00 6,2 4,1 16 9 34 18 W 1011,3 2,5 0 5,4
02.04.2020 03:00:00 7,9 6,4 8 4 21 11 WSW 1011,4 20 0 0,0
02.04.2020 02:00:00 8,8 7,1 13 7 22 12 SW 1011,4 20 0 -
02.04.2020 01:00:00 9,1 7,6 8 4 12 7 WSW 1011,6 20 0 0,0
02.04.2020 00:00:00 9,2 7,4 5 3 10 6 E 1011,7 20 0 0,2
01.04.2020 23:00:00 9,2 7,4 6 3 12 7 S 1012,0 20 0 0,6
01.04.2020 22:00:00 9,4 7,1 7 4 26 14 WSW 1011,8 11 0 1,2
01.04.2020 21:00:00 9,7 6,5 8 4 12 6 NE 1010,8 20 0 0,0
01.04.2020 20:00:00 10,3 6,7 8 4 22 12 SE 1010,9 20 0 -
01.04.2020 19:00:00 11,9 5,9 15 8 24 13 S 1010,9 20 17 0,0
01.04.2020 18:00:00 11,9 6,4 8 5 22 12 SE 1011,2 20 42 0,0
01.04.2020 17:00:00 11,1 7,0 5 3 14 7 SSE 1011,9 20 5 0,6
01.04.2020 16:00:00 10,7 6,7 10 5 27 15 SSW 1012,4 20 21 0,2
01.04.2020 15:00:00 9,6 6,5 7 4 50 27 SW 1012,9 20 0 1,2
01.04.2020 14:00:00 11,0 5,8 9 5 29 16 WNW 1012,3 20 12 -
01.04.2020 13:00:00 10,5 5,0 11 6 18 10 SW 1013,0 20 0 0,0
01.04.2020 12:00:00 9,8 5,1 4 2 9 5 WSW 1013,4 20 16 0,0
01.04.2020 11:00:00 7,5 5,3 7 4 10 5 E 1013,7 19 34 0,0
01.04.2020 10:00:00 5,0 3,8 5 3 13 7 SSW 1013,9 11 17 0,0
01.04.2020 09:00:00 3,0 1,9 8 5 13 7 E 1013,7 0,1 22 0,0
01.04.2020 08:00:00 2,9 1,5 3 2 9 5 S 1013,3 0,9 0 -
01.04.2020 07:00:00 4,0 2,3 5 3 7 4 E 1012,5 11 0 0,0
01.04.2020 06:00:00 5,0 3,4 5 3 6 3 NE 1012,1 20 0 0,0
01.04.2020 05:00:00 5,5 3,6 3 2 7 4 SW 1012,1 20 0 0,0
01.04.2020 04:00:00 5,9 3,6 5 3 10 6 SW 1011,9 20 0 0,0
01.04.2020 03:00:00 6,4 3,6 6 3 16 9 WSW 1011,9 20 0 0,0
01.04.2020 02:00:00 7,2 4,5 8 4 14 7 WSW 1012,0 20 0 -
01.04.2020 01:00:00 7,5 5,0 8 4 15 8 WSW 1011,7 20 0 0,0
01.04.2020 00:00:00 7,4 5,1 7 4 10 5 SW 1011,2 20 0 0,0
31.03.2020 23:00:00 8,4 5,6 8 5 13 7 WSW 1010,5 20 0 0,0
31.03.2020 22:00:00 8,7 5,3 10 5 24 13 WSW 1009,5 20 0 0,0
31.03.2020 21:00:00 9,6 5,9 18 10 31 17 WSW 1008,2 20 4 0,0
31.03.2020 20:00:00 11,0 6,7 24 13 34 19 WSW 1006,9 20 19 -
31.03.2020 19:00:00 11,9 8,0 26 14 40 22 WSW 1006,0 20 6 0,0
31.03.2020 18:00:00 12,2 7,3 26 14 44 24 WSW 1005,2 20 7 0,0
31.03.2020 17:00:00 13,8 8,3 31 17 48 26 WSW 1003,6 20 49 0,0
31.03.2020 16:00:00 14,6 9,6 35 19 46 25 WSW 1003,1 20 30 0,0
31.03.2020 15:00:00 13,4 10,5 10 6 33 18 SSW 1003,5 20 8 1,2
31.03.2020 14:00:00 12,2 9,8 27 15 41 22 WSW 1003,4 20 13 -
31.03.2020 13:00:00 14,1 9,9 19 10 31 17 S 1002,8 20 16 0,2
31.03.2020 12:00:00 12,4 9,8 11 6 22 12 SSW 1003,3 20 6 0,2
31.03.2020 11:00:00 10,7 8,7 5 3 10 5 SSW 1003,5 10 0 0,8
31.03.2020 10:00:00 10,7 8,7 4 2 8 5 SSW 1003,0 20 42 0,0
31.03.2020 09:00:00 9,6 8,3 3 1 4 2 ENE 1002,8 17 15 0,0
31.03.2020 08:00:00 9,3 7,6 2 1 4 2 ESE 1002,4 20 0 -
31.03.2020 07:00:00 9,4 7,8 5 3 10 5 NE 1001,9 20 0 1,0
31.03.2020 06:00:00 9,6 8,0 7 4 11 6 NNE 1001,8 4,5 0 3,0
31.03.2020 05:00:00 9,7 7,8 9 5 22 12 ENE 1002,1 6 0 1,0
31.03.2020 04:00:00 9,4 7,7 14 8 27 15 NE 1002,5 13 0 1,4
31.03.2020 03:00:00 9,3 7,3 18 10 28 15 NE 1003,0 20 0 0,4
31.03.2020 02:00:00 9,5 6,7 21 12 31 17 NE 1003,9 20 0 -
31.03.2020 01:00:00 9,2 6,8 18 10 37 20 NE 1005,0 20 0 0,6
31.03.2020 00:00:00 10,1 6,2 13 7 21 11 NE 1005,7 20 0 0,0
30.03.2020 23:00:00 9,9 6,5 7 4 19 11 ENE 1006,3 20 0 0,0
30.03.2020 22:00:00 10,0 6,5 16 9 22 12 ENE 1006,8 20 0 0,0

tt = temperature
td = dewpoint
ff = wind speed
fx = gusts
dd = wind direction
ppp = reduced air pressure
vv = visibility
sd = sunshine duration
rr = precipitation

Next stations